Showing default

KUIPER-00253, 68584

Orbit data source: Space-Track

KUIPER-00253, 68584 is a payload satellite owned by Kuiper Systems (US) in LEO that was launched on Sat, 04 Apr 2026 UTC via an ATLAS V 551 launch vehicle from the Air Force Eastern Test Range (AFETR). Payload-class satellites include a variety of spacecraft equipped with specific instruments for various scientific and technological missions. These include communications satellites like Starlink; space stations such as the ISS; scientific satellites like the Hubble; Earth observation satellites from companies like Planet Labs, Umbra, and HawkEye 360; GPS; miniature CubeSats for education and research; and military/defense satellites.

Loading next visibility...
Identifier
68584, 2026-072M
Orbit
LEO
Country
Flag of USUS
Related business
Manufacturer
Kuiper Systems
Mission
Operational spacecraft
Bus & Motor
KUIPER, Unknown motor
Mass
~490 kg wet, ~490 kg dry
Launch date (UTC)
2026-04-04 (2 months ago)
Launch vehicle
ATLAS V 551
Launch site
Air Force Eastern Test Range (AFETR)
Object type
Payload
Rocket body
Debris
Shape & HBR
Unknown shape, 3.4 m
Radar Cross Section
Large (>1 m²)

Expand to show TLE details & history
Last TLE update: 11 hours ago

TLE from 11 hours ago
0 KUIPER-00253
1 68584U 26072M   26150.16668980  .00057264  00000-0  32176-2 0  9991
2 68584  51.8815 265.0975 0007705 338.1410 339.3115 15.12729814  5149
Epoch: 2026-05-30T04:00Z
TLE epoch observation values (Epoch: 2026-05-30T04:00:01.998Z)
Latitude
-32.36429°
Longitude
-72.23556°
Altitude
532.833 km
Speed
7.599 km/s
True Right ascension
15h 41m 50s
True Declination
-32° 12' 14"
Sunlit
Object was in full shadow at epoch
Visualization orbit readout
Latitude
Unknown
Longitude
Unknown
Altitude
Unknown
Speed
Unknown
Apparent Right ascension
Unknown
Apparent Declination
Unknown
Sunlit
N/A
Visualization observer readout
Local Sidereal Time
00:44:35
Azimuth
Unknown
Elevation
Unknown
Doppler factor
Unknown
Orbital elements
Apogee altitude
533.661 km
Perigee altitude
523.019 km
Semi-major axis
6,906.477 km
Eccentricity
0.00077
Inclination
51.8815°
RAAN
265.0975°
Arg. of periapsis
338.141°
True anomaly
339.28028°
Mean anomaly
339.3115°
Eccentric anomaly
339.29589°
Mean motion
3.78145 °/min
Orbital period
95.2 mins
BSTAR
0.0032176
Loading maneuver chart data...
Computing Atmospheric mass density...
Loading historical data...
Loading historical data...
Loading historical data...
Loading historical data...
Loading historical data...
Loading historical data...
Loading historical data...

Documentation

Showing up to 5 results
|